ORBCOMM FM23 [+]

Last updated on July 6, 2021, 3:36 p.m. UTC

1 25477U 98053C   21186.81755133  .00000037  00000-0  64245-4 0  9996
2 25477  45.0085 230.9659 0003768 242.2718 117.7747 14.32964838190285
UTC
Height (km)
Latitude
Longitude
Inclination
Orbital Period
UTC large
Height (km)
Speed (km/s)
/
Latitude / Longitude
Inclination (degrees)
Orbital Period (minutes)
Azimuth
Elevation
Range (km)
Doppler Factor
iOS Compass Heading
iOS Angle